星链-31631 (STARLINK-31631 )

导读

STARLINK-31631是美国太空探索技术公司星链互联网星座的组网卫星,于2024年4月10日发射升空。它隶属于第二代星链星座,旨在为全球提供高速低延迟卫星互联网服务,尤其覆盖偏远地区。星链系统通过规模化低轨卫星组网,持续补充完善卫星通信网络,该卫星入轨后参与星座运行,提升了星座整体服务覆盖能力与容量。

基本信息
目录编号:
59459
目录名称:
STARLINK-31631
国际标识:
2024-068E
轨道中心:
EARTH
卫星名称:
星链-31631
卫星全名:
星链-31631 (STARLINK-31631 )
卫星状态:
在轨 (已飞行795 天)
发射日期:
2024-04-10 UTC
国别 :
美国 (US)
星等 :
--
轨道信息
数据来源 国际轨道数据 AOE轨道数据
星历时间 2026-06-12T18:02:54+0800
2天前
查看轨道信息
2026-06-11T06:00:00+0800
3天前
查看轨道信息
半长轴 6861.198km 6861.228km
偏心率 0.0000938 0.0000783
轨道倾角 42.989° 42.992°
近地点辐角 231.101° 166.382°
升交点赤经 215.785° 224.273°
平近点角 128.976° 204.036°
近地点 482.417km 482.553km
远地点 483.705km 483.629km
周期 94.267分钟 94.268分钟
每日圈数 15.275763 15.275663
详细信息
固有亮度:
5
最大亮度:
1.5
卫星平台:
Starlink v2.0 mini
覆盖范围:
全球
运营商:
太空探索技术公司
运营商所在国:
美国
制造商(研发单位):
太空探索技术公司
制造商所在国:
美国
使用方式:
暂无
卫星简介
星链(Starlink)计划是由太空探索技术公司(SpaceX)提出的一个巨型低轨卫星互联网星座项目,计划在2019年至2024年间在太空搭建由约1.2万颗卫星组成的“星链”网络,其中1584颗将部署在地球上空550千米处的近地轨道,并从2020年开始工作。该卫星仍在工作。
2D轨道图
3D轨道图
轨道高度分析图
轨道倾角分析图
轨道综合分析图
查看轨道综合分析图